Hourly Data Report for October 18, 2013

All times are specified in Local Standard Time (LST). Add 1 hour to adjust for Daylight Saving Time where and when it is observed.

POND INLET A
NUNAVUT

72°41'22.000" N
77°58'08.000" W
61.60 m
2403206
71095
YIO

Download Data

Hourly Data (October 2013)
Hourly Data Report for October 18, 2013
Temp Definition
°C
Dew Point Temp Definition
°C
Rel Hum Definition
%
Wind Dir Definition
10's deg

Wind Spd Definition
km/h
Visibility Definition
km
Stn Press Definition
kPa
Hmdx Definition


Wind Chill Definition


Weather Definition


TIME
00:00 Legend Double Dagger -0.5 -5.9 67 9 5 16.1 100.53   -2 LegendNANA
01:00 Legend Double Dagger -3.6 -7.3 76 12 5 16.1 100.53   -6 LegendNANA
02:00 Legend Double Dagger -1.5 -6.5 69 11 8 16.1 100.51   -5 LegendNANA
03:00 Legend Double Dagger -3.5 -7.3 75   0 16.1 100.47     LegendNANA
04:00 Legend Double Dagger -3.2 -7.2 74 5 9 16.1 100.43   -7 LegendNANA
05:00 Legend Double Dagger -2.3 -6.7 72 LegendMM 4 16.1 100.42   -4 LegendNANA
06:00 Legend Double Dagger -4.2 -8.0 75 15 5 16.1 100.38   -6 LegendNANA
07:00 Legend Double Dagger -3.5 -6.8 78 15 5 16.1 100.36   -6 LegendNANA
08:00 Legend Double Dagger -1.9 -6.3 72 9 5 16.1 100.34   -4 LegendNANA
09:00 Legend Double Dagger -1.7 -6.0 73 LegendMM 4 16.1 100.32   -3 LegendNANA
10:00 Legend Double Dagger -0.2 -4.5 73 6 22 16.1 100.30   -6 LegendNANA
11:00 Legend Double Dagger -1.0 -3.9 81 5 15 16.1 100.32   -6 LegendNANA
12:00 Legend Double Dagger -0.3 -4.5 73 6 17 16.1 100.29   -5 LegendNANA
13:00 Legend Double Dagger -1.0 -4.9 75 8 9 16.1 100.28   -4 LegendNANA
14:00 Legend Double Dagger -0.5 -5.4 70 3 8 16.1 100.25   -3 LegendNANA
15:00 Legend Double Dagger -1.2 -4.0 81 5 22 16.1 100.22   -7 LegendNANA
16:00 Legend Double Dagger -0.9 -5.0 74 6 15 16.1 100.23   -6 LegendNANA
17:00 Legend Double Dagger -1.3 -4.8 77 5 22 16.1 100.26   -7 LegendNANA
18:00 Legend Double Dagger -0.6 -5.0 72 8 13 16.1 100.24   -5 LegendNANA
19:00 Legend Double Dagger -0.8 -5.4 71 5 18 16.1 100.23   -6 LegendNANA
20:00 Legend Double Dagger -1.3 -5.8 72 7 8 16.1 100.23   -4 LegendNANA
21:00 Legend Double Dagger -3.1 -7.6 72 15 13 16.1 100.25   -8 LegendNANA
22:00 Legend Double Dagger -2.9 -7.6 70 LegendMM 4 16.1 100.28   -4 LegendNANA
23:00 Legend Double Dagger -4.7 -7.5 81 12 11 16.1 100.30   -9 LegendNANA

Notes on Data Quality.

Legend

  • E = Estimated
  • M = Missing
  • NA = Not Available
  • ‡ = Partner data that is not subject to review by the National Climate Archives
Date modified: